Regional Weather Roundup
Issued by NWS

Home | Current Version | Previous Version | Graphics & Text | Print | Product List | Glossary Off
Versions: 1 2 3 4 5 6 7 8 9 10 11 12 13 14 15 16 17 18 19 20 21 22 23 24 25 26 27 28 29 30 31 32 33 34 35 36 37 38 39 40 41 42 43 44 45 46 47 48 49 50

000
ASUS43 KLSX 310157
RWRMO

WEATHER SUMMARY FOR MISSOURI
NATIONAL WEATHER SERVICE SPRINGFIELD MO
900 PM CDT TUE AUG 30 2016

NOTE: "FAIR" INDICATES FEW OR NO CLOUDS BELOW 12,000 FEET WITH NO
       SIGNIFICANT WEATHER AND/OR OBSTRUCTIONS TO VISIBILITY.
       CURRENT SKY AND/OR WEATHER CONDITIONS ARE NOT AVAILABLE FOR
       CHILLICOTHE AND FARMINGTON.

MOZ001>031-035>038-043-044-053-054-310300-
...NORTHERN AND WESTERN MISSOURI...

CITY           SKY/WX    TMP DP  RH WIND       PRES   REMARKS
KANSAS CTY INT CLOUDY    78  70  76 N7        30.12R
KANSAS C DTWN  CLOUDY    81  70  69 SE10      30.10R THUNDER
LEE`S SUMMIT   MOCLDY    75  70  84 CALM      30.12R
ST JOSEPH      CLOUDY    75  71  87 N5        30.12R
CHILLICOTHE      N/A     77  73  87 CALM      30.12R

$$
MOZ066>068-077>081-088>096-101>105-310300-
...SOUTHWEST MISSOURI...

CITY           SKY/WX    TMP DP  RH WIND       PRES   REMARKS
SPRINGFIELD    CLOUDY    79  71  76 N7        30.09R
JOPLIN         CLOUDY    78  68  71 NE7       30.09R THUNDER
BRANSON        CLEAR     77  73  88 CALM      30.08R

$$
MOZ032>034-039>042-045>050-055>058-069>072-310300-
...CENTRAL MISSOURI...

CITY           SKY/WX    TMP DP  RH WIND       PRES   REMARKS
COLUMBIA       NOT AVBL
JEFFERSON CITY MOCLDY    73  71  93 CALM      30.09R
ROLLA          PTCLDY    71  70  96 CALM      30.09R
SEDALIA        CLOUDY    73  70  90 CALM      30.10S

$$
MOZ051-052-059>065-310300-
...EAST CENTRAL MISSOURI...

CITY           SKY/WX    TMP DP  RH WIND       PRES   REMARKS
ST LOUIS INTL  PTCLDY    74  71  91 N5        30.08R
SPIRIT OF STL  MOCLDY    73  72  94 CALM      30.07R

$$
MOZ072>076-082>087-097>100-106>115-310300-
...SOUTH CENTRAL AND SOUTHEAST MISSOURI...

CITY           SKY/WX    TMP DP  RH WIND       PRES   REMARKS
CAPE GIRARDEAU CLEAR     78  71  79 NW3       30.02R
POPLAR BLUFF   CLEAR     78  74  87 N7        30.01R
WEST PLAINS    PTCLDY    76  71  85 N6        30.10R

$$



USA.gov is the U.S. government's official web portal to all federal, state and local government web resources and services.